Precipitable_Water
0.42 0.50 0.54 0.44 0.24 0.22 0.19 0.22 0.28 0.37 0.46 0.59 0.58 0.51 0.60 0.73 0.64 0.59 1.37 1.39 1.36 1.29 1.41 1.95 1.96 1.89 1.81 1.71 1.65 1.56 1.51 1.43 1.28 1.01 0.95 1.02 1.01 1.00 0.94 0.94 0.91 0.88 0.85 0.81 0.78 0.80 0.84 0.87 0.91
0.41 0.51 0.51 0.37 0.20 0.17 0.20 0.26 0.27 0.33 0.48 0.56 0.56 0.58 0.64 0.70 0.93 1.14 1.27 1.34 1.33 1.29 1.31 1.42 1.98 1.93 1.87 1.79 1.70 1.62 1.55 1.44 1.22 0.97 0.98 1.07 1.06 1.00 0.99 0.95 0.91 0.89 0.87 0.81 0.79 0.80 0.85 0.89 0.88
0.41 0.48 0.36 0.26 0.23 0.20 0.21 0.27 0.28 0.32 0.37 0.44 0.54 0.84 0.80 0.74 0.93 1.03 1.39 1.38 1.35 1.52 1.62 1.68 1.74 1.77 1.92 1.83 1.74 1.69 1.59 1.45 1.15 0.97 1.04 1.17 1.12 1.03 1.01 0.96 0.94 0.92 0.88 0.83 0.81 0.80 0.82 0.84 0.87
0.46 0.41 0.38 0.26 0.22 0.26 0.26 0.29 0.30 0.27 0.31 0.42 0.69 0.64 0.89 1.16 1.06 1.16 1.35 1.52 1.44 1.50 1.58 1.73 1.77 1.76 1.92 1.94 1.78 1.70 1.60 1.39 1.09 1.01 1.12 1.21 1.23 1.11 1.01 0.97 0.96 0.95 0.91 0.86 0.80 0.77 0.83 0.87 0.85
0.53 0.41 0.24 0.23 0.24 0.28 0.32 0.32 0.30 0.32 0.43 0.57 0.67 0.73 0.73 1.01 1.30 1.27 1.43 1.56 1.54 1.65 1.63 1.70 1.68 1.71 1.68 1.96 1.87 1.76 1.58 1.29 1.04 1.04 1.14 1.23 1.24 1.22 1.05 0.96 0.97 0.97 0.92 0.86 0.79 0.75 0.80 0.84 0.82
0.33 0.35 0.25 0.23 0.24 0.31 0.36 0.40 0.43 0.45 0.57 0.70 0.74 0.79 0.89 1.25 1.19 1.29 1.52 1.68 1.68 1.67 1.62 1.70 1.72 1.70 1.72 1.74 1.91 1.73 1.53 1.25 1.02 1.05 1.13 1.19 1.20 1.22 1.12 0.99 0.99 0.98 0.94 0.90 0.84 0.75 0.72 0.77 0.81
0.32 0.27 0.23 0.24 0.23 0.28 0.34 0.48 0.52 0.52 0.74 0.68 0.88 0.79 0.85 0.98 1.26 1.39 1.56 1.58 1.70 1.67 1.64 1.69 1.77 1.81 1.86 1.88 1.77 1.67 1.43 1.16 1.04 1.06 1.18 1.19 1.23 1.20 1.18 1.01 1.03 1.04 0.99 0.94 0.87 0.77 0.69 0.73 0.77
0.34 0.30 0.24 0.27 0.27 0.31 0.41 0.48 0.64 0.66 0.59 0.92 0.95 0.65 0.69 1.01 1.33 1.45 1.50 1.57 1.57 1.62 1.67 1.74 1.80 1.80 1.77 1.75 1.67 1.50 1.32 1.10 1.04 1.10 1.14 1.20 1.24 1.24 1.22 1.08 1.07 1.05 0.99 0.95 0.89 0.80 0.74 0.74 0.73
0.36 0.27 0.25 0.30 0.32 0.32 0.42 0.44 0.62 0.71 0.73 0.71 0.93 0.89 0.96 1.14 1.30 1.31 1.30 1.36 1.41 1.49 1.61 1.66 1.61 1.68 1.64 1.64 1.43 1.45 1.32 1.14 1.09 1.18 1.26 1.30 1.29 1.32 1.24 1.11 1.12 1.04 1.01 0.98 0.94 0.87 0.75 0.73 0.71
0.28 0.24 0.27 0.35 0.38 0.33 0.39 0.46 0.59 0.65 0.71 0.80 0.86 0.90 1.15 1.29 1.19 1.16 1.16 1.13 1.24 1.31 1.47 1.58 1.54 1.59 1.59 1.50 1.41 1.38 1.27 1.23 1.23 1.27 1.27 1.29 1.27 1.30 1.20 1.16 1.14 1.04 1.02 1.01 0.97 0.92 0.89 0.83 0.72
0.28 0.23 0.30 0.32 0.37 0.38 0.39 0.46 0.75 0.60 0.65 0.84 0.72 0.83 1.00 1.11 1.11 1.09 1.10 1.19 1.24 1.30 1.37 1.43 1.47 1.54 1.49 1.46 1.38 1.29 1.26 1.22 1.19 1.26 1.28 1.21 1.21 1.24 1.16 1.16 1.12 1.05 1.05 1.02 0.98 0.99 0.99 0.94 0.78
0.28 0.30 0.30 0.33 0.38 0.37 0.39 0.59 0.63 0.68 0.99 1.08 0.97 0.91 1.04 1.02 1.05 1.06 1.01 1.09 1.11 1.19 1.27 1.36 1.41 1.43 1.46 1.43 1.34 1.35 1.26 1.26 1.20 1.18 1.17 1.15 1.14 1.13 1.10 1.08 1.07 1.05 1.03 1.00 1.01 1.03 1.04 0.94 0.83
0.33 0.29 0.33 0.37 0.36 0.41 0.53 0.54 0.58 0.59 0.80 1.00 0.94 0.93 0.95 0.98 0.99 1.00 1.01 1.06 1.14 1.17 1.24 1.31 1.40 1.36 1.39 1.38 1.37 1.32 1.34 1.27 1.22 1.19 1.19 1.17 1.12 1.08 1.06 1.04 1.06 1.03 1.05 1.03 1.02 1.04 1.02 0.92 0.83
0.35 0.31 0.32 0.33 0.33 0.41 0.46 0.56 0.61 0.68 0.76 0.80 0.80 0.83 0.85 0.85 0.86 0.89 0.91 0.98 1.12 1.21 1.22 1.36 1.34 1.40 1.36 1.36 1.34 1.29 1.35 1.32 1.28 1.19 1.24 1.20 1.09 1.13 1.04 1.06 1.02 1.04 1.07 1.05 1.07 1.06 0.99 0.88 0.82
0.37 0.30 0.30 0.28 0.36 0.44 0.51 0.51 0.59 0.73 0.84 0.82 0.71 0.81 0.85 0.83 0.82 0.83 0.91 0.95 1.11 1.23 1.30 1.29 1.28 1.34 1.32 1.26 1.25 1.25 1.21 1.19 1.19 1.25 1.21 1.20 1.25 1.22 1.14 1.14 1.11 1.10 1.10 1.09 1.10 1.05 0.96 0.88 0.82
0.32 0.28 0.23 0.28 0.33 0.46 0.47 0.38 0.59 0.69 0.77 0.75 0.77 0.76 0.74 0.78 0.82 0.86 0.89 0.92 1.02 1.10 1.17 1.28 1.30 1.26 1.23 1.17 1.20 1.19 1.20 1.26 1.18 1.21 1.25 1.19 1.19 1.21 1.21 1.18 1.13 1.13 1.12 1.11 1.03 0.97 0.90 0.85 0.78
0.29 0.25 0.26 0.28 0.36 0.44 0.44 0.40 0.55 0.72 0.72 0.75 0.77 0.78 0.71 0.72 0.77 0.82 0.87 0.89 0.93 0.99 1.03 1.10 1.18 1.18 1.18 1.24 1.24 1.24 1.26 1.28 1.27 1.17 1.06 1.10 1.16 1.14 1.10 1.09 1.08 1.17 1.18 1.11 0.99 0.94 0.91 0.84 0.77
0.27 0.29 0.30 0.29 0.38 0.46 0.44 0.45 0.56 0.66 0.75 0.69 0.73 0.76 0.69 0.68 0.69 0.74 0.80 0.84 0.88 0.91 0.94 1.00 1.04 1.12 1.14 1.20 1.16 1.15 1.18 1.14 1.06 1.03 1.07 1.04 1.02 1.06 1.04 1.02 1.10 1.22 1.19 1.06 0.98 0.92 0.92 0.88 0.79
0.37 0.36 0.30 0.30 0.42 0.42 0.43 0.49 0.52 0.55 0.65 0.74 0.73 0.68 0.66 0.65 0.76 0.74 0.76 0.81 0.83 0.85 0.84 0.89 0.95 1.00 0.99 0.98 0.94 0.92 0.89 0.91 0.97 1.01 0.98 0.99 0.97 0.99 1.03 1.08 1.17 1.21 1.09 0.99 0.97 0.93 0.90 0.89 0.87
0.40 0.34 0.28 0.31 0.44 0.42 0.40 0.42 0.47 0.52 0.57 0.70 0.75 0.66 0.63 0.61 0.71 0.70 0.72 0.73 0.74 0.75 0.79 0.82 0.85 0.85 0.85 0.82 0.84 0.85 0.83 0.85 0.87 0.88 0.85 0.94 1.03 1.13 1.16 1.10 1.15 1.17 1.05 1.03 1.01 0.96 0.93 0.93 0.92
0.38 0.31 0.23 0.26 0.36 0.40 0.38 0.32 0.41 0.52 0.59 0.63 0.76 0.75 0.66 0.60 0.63 0.68 0.66 0.68 0.71 0.72 0.76 0.74 0.79 0.80 0.79 0.75 0.76 0.77 0.82 0.82 0.81 0.80 0.85 1.04 1.10 1.16 1.13 1.08 1.09 1.07 1.07 1.05 1.04 1.00 0.98 0.92 0.94
0.30 0.33 0.27 0.26 0.32 0.27 0.38 0.25 0.31 0.48 0.54 0.55 0.66 0.69 0.66 0.66 0.66 0.70 0.66 0.66 0.68 0.74 0.78 0.75 0.78 0.81 0.82 0.88 0.83 0.77 0.74 0.73 0.80 0.81 0.80 0.89 1.06 1.08 1.09 1.13 1.13 1.10 1.11 1.09 1.09 1.09 1.08 1.04 0.96
0.31 0.41 0.35 0.32 0.28 0.27 0.27 0.27 0.31 0.47 0.51 0.56 0.65 0.70 0.71 0.67 0.64 0.66 0.68 0.64 0.71 0.78 0.81 0.82 0.80 0.80 0.82 0.86 0.92 0.92 0.97 0.92 0.89 0.88 0.91 0.93 1.09 1.17 1.21 1.21 1.17 1.13 1.15 1.17 1.15 1.14 1.12 1.11 1.06
0.40 0.39 0.37 0.35 0.34 0.22 0.26 0.27 0.27 0.35 0.42 0.54 0.60 0.65 0.71 0.70 0.71 0.71 0.79 0.79 0.74 0.81 0.88 0.91 0.89 0.87 0.88 0.92 0.95 1.02 1.08 1.04 1.00 0.94 0.95 1.02 1.09 1.17 1.22 1.27 1.26 1.23 1.21 1.21 1.20 1.21 1.17 1.16 1.13
0.39 0.35 0.27 0.24 0.23 0.20 0.32 0.29 0.28 0.41 0.46 0.48 0.55 0.62 0.65 0.67 0.72 0.79 0.75 0.79 0.80 0.78 0.86 0.92 0.94 0.93 0.99 0.99 1.03 1.04 1.08 1.17 1.09 1.06 1.00 1.03 1.10 1.17 1.21 1.25 1.26 1.25 1.26 1.27 1.25 1.22 1.19 1.14 1.15
0.35 0.35 0.28 0.19 0.20 0.25 0.35 0.29 0.35 0.46 0.50 0.47 0.49 0.55 0.54 0.66 0.69 0.71 0.75 0.77 0.81 0.85 0.85 0.87 0.91 0.94 0.99 1.02 1.04 1.11 1.13 1.12 1.19 1.11 1.15 1.11 1.12 1.16 1.24 1.32 1.31 1.31 1.29 1.26 1.25 1.24 1.19 1.08 1.07
0.40 0.35 0.39 0.29 0.36 0.34 0.35 0.39 0.46 0.46 0.43 0.45 0.44 0.46 0.50 0.60 0.65 0.70 0.75 0.80 0.83 0.88 0.89 0.90 0.85 0.88 0.95 0.97 1.03 1.12 1.13 1.12 1.16 1.13 1.16 1.16 1.22 1.27 1.29 1.35 1.27 1.32 1.27 1.22 1.16 1.09 1.06 0.99 0.96
0.42 0.43 0.37 0.34 0.25 0.23 0.29 0.34 0.33 0.36 0.40 0.44 0.40 0.42 0.43 0.50 0.59 0.67 0.76 0.79 0.84 0.84 0.89 0.93 1.00 0.96 0.95 1.01 1.04 1.08 1.16 1.19 1.23 1.23 1.19 1.23 1.19 1.31 1.26 1.25 1.30 1.21 1.14 1.09 1.05 0.99 0.99 0.93 0.94
0.38 0.34 0.37 0.44 0.37 0.26 0.24 0.30 0.45 0.42 0.45 0.45 0.41 0.44 0.49 0.54 0.58 0.64 0.70 0.82 0.84 0.86 0.89 0.91 0.97 1.04 1.11 1.13 1.12 1.10 1.19 1.26 1.35 1.30 1.27 1.22 1.21 1.31 1.26 1.24 1.11 1.09 1.03 1.01 0.97 0.94 0.92 0.89 0.87
0.44 0.39 0.34 0.33 0.33 0.37 0.32 0.30 0.47 0.47 0.52 0.48 0.44 0.45 0.47 0.47 0.49 0.49 0.56 0.72 0.81 0.84 0.87 0.95 1.05 1.07 1.12 1.16 1.17 1.28 1.34 1.34 1.41 1.32 1.29 1.23 1.24 1.22 1.13 1.08 1.04 0.99 0.97 0.94 0.91 0.88 0.85 0.86 0.78
Wind_Speed
17 16 16 15 14 13 14 16 14 11 6 12 12 13 10 10 14 17 19 21 21 19 20 7 26 27 26 25 23 21 19 17 14 12 12 11 11 12 12 12 11 10 10 9 9 9 9 8 7
16 15 14 14 12 13 14 15 11 12 9 10 10 10 11 12 13 15 18 19 22 22 21 19 16 24 26 26 25 22 20 17 15 14 13 12 13 13 13 12 12 11 10 9 9 9 8 7 6
14 12 12 9 10 10 12 16 13 11 13 12 9 8 11 14 16 18 19 21 19 19 20 23 21 22 27 27 25 23 20 18 16 16 15 15 14 14 13 13 12 11 10 10 9 8 7 6 6
12 12 11 9 13 15 15 15 10 10 9 9 6 7 9 13 18 20 24 24 19 19 19 19 18 27 31 29 26 24 22 19 17 17 16 16 15 14 14 13 12 11 10 9 8 7 7 7 5
11 11 11 12 14 19 12 10 11 12 10 10 10 9 11 14 16 15 16 21 19 14 14 17 18 23 22 22 25 25 23 20 19 18 17 16 16 15 15 14 12 10 9 9 8 7 7 6 5
11 10 12 13 16 12 8 12 13 15 13 9 9 10 8 11 13 13 11 14 15 14 13 15 17 14 22 19 26 24 22 21 19 19 17 17 17 16 15 14 12 10 9 8 8 7 6 5 4
10 11 11 12 16 12 11 12 12 14 13 11 11 10 14 12 12 10 10 9 12 14 14 15 16 17 17 20 19 20 18 18 19 19 19 18 17 17 16 15 13 11 9 9 7 6 6 5 4
10 10 12 11 14 11 11 10 9 6 10 9 9 11 13 11 10 8 7 8 11 13 16 18 17 18 18 18 17 19 19 19 19 18 19 19 18 18 17 15 13 12 11 9 7 6 5 5 4
9 8 9 12 16 10 11 10 12 8 7 10 8 8 9 7 7 7 7 7 10 13 16 18 16 19 18 17 14 17 20 19 19 20 19 19 19 19 18 15 13 12 11 8 7 6 6 4 3
8 7 10 13 10 11 11 11 10 10 11 6 7 8 6 7 7 8 9 9 11 13 17 19 17 19 20 16 14 15 19 19 21 22 21 20 20 19 17 16 14 12 11 9 7 6 4 3 3
11 10 13 13 9 11 11 11 10 14 7 7 5 5 4 3 6 8 8 9 11 14 16 19 19 19 20 19 16 17 20 18 21 23 21 21 19 19 15 15 14 13 11 10 8 5 4 3 4
13 13 12 13 10 12 12 9 9 10 11 9 4 4 3 2 4 6 7 10 11 14 16 18 20 19 21 19 19 21 19 19 21 22 21 20 19 19 16 16 14 13 12 10 8 6 5 4 4
13 11 11 13 12 9 6 8 8 8 11 8 4 4 4 2 1 3 4 6 9 13 16 18 20 19 20 19 21 22 19 23 22 21 21 19 20 19 17 15 15 14 12 11 9 7 6 5 5
13 14 13 13 12 9 7 8 8 12 7 3 3 2 4 3 2 1 1 2 6 11 15 17 20 19 20 19 24 22 21 21 22 23 20 19 21 19 17 16 15 14 13 11 10 9 7 6 6
15 14 13 12 11 8 5 8 8 9 4 2 3 1 2 3 2 1 3 3 4 8 11 14 18 20 17 19 22 22 23 22 23 21 20 19 20 19 19 17 15 14 13 11 11 9 8 7 7
13 11 8 10 11 9 7 10 9 7 3 4 3 2 2 1 4 5 5 6 7 8 8 13 16 19 19 19 21 23 23 23 23 21 22 20 19 19 19 16 16 14 13 12 11 9 8 8 9
9 10 12 16 12 9 7 8 10 5 5 3 4 2 1 3 4 5 6 7 8 9 11 11 13 18 19 20 19 24 22 23 22 23 24 21 20 19 18 16 16 14 13 12 11 10 10 11 11
10 11 13 12 8 8 8 8 8 5 6 7 5 3 2 4 4 5 7 8 10 10 10 12 14 17 17 16 16 20 21 20 23 23 22 21 20 19 17 16 15 15 14 13 12 12 12 13 14
15 15 13 9 5 7 11 9 10 8 5 8 8 6 4 4 4 6 7 8 9 8 10 13 14 15 17 17 18 19 19 21 22 21 19 20 20 18 18 17 16 16 15 14 14 14 14 15 15
16 12 13 10 5 6 6 11 13 8 7 7 11 8 6 5 7 7 7 8 9 9 11 13 14 15 16 17 16 16 18 18 18 18 19 19 19 18 17 17 17 17 16 16 17 17 17 18 18
13 12 12 11 10 10 11 10 11 11 7 8 9 11 9 8 8 8 9 9 10 10 11 12 13 14 15 15 14 13 14 15 16 17 17 17 18 18 18 18 18 18 18 18 19 20 20 21 21
13 12 13 12 9 9 6 10 10 11 11 10 17 14 11 10 10 10 11 11 11 12 12 12 13 14 14 14 13 13 12 13 14 14 16 17 18 18 19 18 18 19 20 20 21 22 23 22 23
14 12 10 10 11 10 11 7 11 11 14 15 16 16 14 12 11 12 12 13 13 13 14 14 14 15 16 15 14 14 13 13 13 15 16 18 18 19 19 19 19 20 20 21 22 23 24 25 25
15 12 12 11 10 10 11 9 11 10 12 15 17 16 16 14 14 13 14 14 14 15 16 16 16 17 17 17 17 15 14 15 15 16 18 19 19 20 20 20 20 21 22 23 24 24 26 26 26
16 13 10 8 9 10 6 9 12 12 13 11 16 19 18 17 15 15 15 16 16 17 18 19 18 18 19 19 18 18 16 16 18 18 18 19 20 21 22 22 22 21 22 24 25 25 26 28 26
18 16 12 11 9 10 9 8 8 7 11 11 13 17 17 18 18 17 17 17 18 19 19 21 21 20 21 20 21 20 19 17 15 19 19 20 21 19 21 22 22 22 22 23 23 24 25 26 27
14 17 17 15 11 7 9 11 10 10 12 11 12 10 16 18 19 20 19 19 19 20 21 22 24 24 23 24 22 23 22 21 18 17 17 19 19 20 22 24 24 23 22 22 24 25 26 26 27
22 14 14 16 13 11 12 13 11 14 13 13 11 12 12 13 18 19 22 22 23 22 23 24 25 25 26 26 27 26 25 25 22 19 19 19 20 22 22 22 21 22 23 24 24 26 26 26 26
20 22 18 14 13 13 10 10 8 7 10 13 12 11 10 10 10 12 17 24 24 24 26 25 25 26 25 26 28 29 29 27 26 22 20 19 20 20 20 20 22 23 23 24 25 26 26 26 28
28 23 23 17 16 15 14 14 10 10 12 15 12 12 13 13 12 12 14 15 17 26 26 25 26 27 27 27 26 26 30 28 31 23 21 20 20 21 21 21 22 23 24 25 25 25 27 26 28
Wind_Direction
318 315 315 314 315 309 293 299 292 326 272 262 259 256 242 242 238 224 229 231 232 243 239 233 183 188 190 190 190 190 189 189 188 188 181 173 168 163 157 155 153 149 143 139 135 130 126 116 104
320 316 315 314 311 312 304 296 286 271 284 275 258 272 254 237 241 232 236 239 241 248 240 232 194 191 193 191 190 190 192 194 192 188 182 177 169 164 160 158 153 150 146 143 139 135 130 121 105
324 322 326 320 314 293 300 302 305 288 265 283 272 276 248 245 245 247 248 240 237 238 234 225 221 209 196 193 192 193 193 192 192 187 181 175 171 167 164 159 155 152 149 145 144 139 135 125 114
326 324 321 321 304 302 292 304 313 315 315 308 263 276 261 262 255 262 255 235 240 240 236 223 221 204 204 184 189 193 193 189 187 184 180 178 173 171 167 163 160 155 152 149 147 144 138 130 115
320 318 312 307 304 303 313 304 315 311 303 313 286 280 270 273 265 268 250 219 214 219 218 215 211 214 222 189 187 188 190 190 186 184 183 180 179 176 172 169 165 159 155 152 147 143 144 138 121
319 316 316 312 310 322 311 319 316 323 310 298 294 274 281 277 278 264 240 196 205 207 209 207 206 204 202 198 172 184 189 188 188 188 190 188 186 181 178 177 172 165 158 152 147 142 144 144 133
301 320 308 311 311 303 308 314 321 315 303 300 277 283 278 282 273 260 228 205 201 208 210 204 199 194 187 188 194 189 189 191 193 193 191 190 186 183 181 178 173 168 161 154 147 143 141 143 136
301 310 316 315 318 306 315 325 327 328 306 299 291 272 276 280 259 249 230 212 214 212 210 201 199 196 195 192 189 193 194 193 194 192 188 186 185 183 181 176 175 171 165 156 152 145 142 137 130
316 316 304 305 318 308 317 324 323 332 339 330 323 312 293 257 247 235 226 223 217 215 206 198 204 197 194 195 209 200 202 197 191 188 186 186 185 184 183 181 179 174 168 163 158 149 141 140 134
304 302 287 299 318 314 317 318 314 314 323 326 341 338 317 230 247 246 241 235 226 216 211 211 209 205 205 206 203 200 189 198 196 194 190 187 187 186 187 187 184 181 177 173 169 165 163 169 162
300 285 293 300 305 317 316 317 331 336 313 311 307 326 313 255 248 253 250 245 228 220 217 217 212 209 210 209 206 200 193 194 195 192 189 189 194 190 187 192 188 189 186 183 184 193 198 203 180
301 291 291 294 293 305 314 310 316 348 319 342 340 335 325 273 243 241 243 241 232 223 218 211 211 212 205 208 213 201 196 197 188 188 189 197 193 191 195 194 195 198 193 197 201 211 208 201 201
308 288 285 292 299 305 338 328 298 299 303 311 316 347 40 39 210 234 239 243 229 217 214 214 210 210 208 208 201 194 201 193 194 192 195 197 194 195 197 203 201 200 204 205 211 214 217 214 208
304 295 288 296 284 289 303 315 321 310 314 265 285 344 46 62 91 146 207 245 232 215 205 202 206 200 200 203 198 203 200 198 202 197 198 197 194 197 203 201 200 203 207 215 224 222 222 221 219
308 302 290 278 279 257 291 309 320 326 311 299 284 224 84 57 70 97 124 105 106 172 192 196 193 197 195 196 198 199 201 193 191 196 196 195 199 202 202 200 204 207 215 220 219 221 225 229 238
306 307 293 278 268 266 284 290 302 306 321 284 258 154 133 96 101 113 115 111 118 115 142 177 185 189 197 200 195 194 189 193 195 200 192 196 200 200 196 201 206 211 216 219 217 225 234 241 253
284 289 289 287 259 262 278 287 290 302 256 283 226 183 102 131 140 128 126 120 123 120 123 131 155 180 182 184 193 194 195 198 204 198 197 203 193 195 201 207 214 218 217 220 227 239 248 254 260
278 298 295 306 262 249 270 265 276 284 228 228 221 185 145 141 153 147 138 127 123 123 130 136 138 150 162 166 170 176 184 187 187 185 189 192 197 203 209 214 219 222 225 230 237 247 257 264 266
277 295 309 297 289 258 258 256 257 257 229 234 216 194 181 170 165 156 148 142 136 130 135 141 143 147 154 154 154 161 168 170 174 183 195 200 204 212 216 221 225 226 230 237 244 254 262 269 272
275 290 292 279 275 287 277 253 252 242 253 219 208 208 198 183 180 173 168 163 155 146 142 144 146 148 151 153 157 164 170 179 188 198 203 208 213 217 221 226 228 231 236 244 250 257 267 273 273
268 271 272 261 283 281 276 281 248 252 246 261 224 223 208 193 194 189 184 180 174 168 161 158 157 159 160 161 165 171 182 194 204 209 213 217 219 222 226 228 232 239 243 252 258 263 269 274 274
269 264 265 267 280 263 255 274 255 235 241 231 230 211 208 201 203 199 194 194 191 187 183 180 178 177 179 181 184 190 196 202 209 214 219 221 221 227 229 234 238 244 251 257 262 267 272 274 275
259 266 275 270 274 282 270 259 259 240 232 231 227 211 212 208 205 204 203 200 200 199 199 198 198 198 199 202 203 207 212 217 220 222 224 226 230 231 233 238 245 251 256 262 266 270 273 275 277
255 259 262 271 275 281 262 253 255 250 233 225 219 214 217 216 212 213 210 209 209 209 210 210 211 212 212 213 216 219 222 226 229 230 232 233 235 236 238 244 251 256 262 265 270 274 275 275 277
243 246 256 276 261 256 280 271 254 251 228 228 223 220 224 220 215 216 216 217 219 217 215 216 217 218 219 223 223 227 231 233 236 237 240 238 238 240 242 250 255 261 266 268 272 276 277 281 270
236 226 227 239 249 264 266 259 276 246 222 232 219 218 228 222 222 221 224 225 225 224 223 224 225 226 226 228 230 233 234 240 247 243 242 242 240 244 250 254 261 265 267 272 274 277 277 284 276
236 229 234 244 259 276 259 266 274 254 230 233 227 229 230 227 229 231 231 229 228 228 229 229 229 232 232 232 233 235 238 240 247 246 240 243 247 255 260 260 264 266 272 275 278 280 279 283 283
229 229 234 235 236 243 259 264 256 219 224 235 232 234 230 235 238 240 240 236 236 234 234 234 234 236 238 239 240 241 241 242 243 246 245 251 256 259 263 264 265 271 277 279 280 281 281 281 286
227 231 234 234 230 236 248 259 244 238 215 233 236 223 222 231 237 247 248 244 241 238 237 237 238 241 243 242 244 243 242 245 243 246 249 254 260 265 266 269 274 275 278 280 282 281 281 282 285
225 228 225 230 241 245 240 251 237 233 221 233 223 229 239 252 248 254 247 246 249 241 241 240 240 242 246 246 248 244 236 253 247 242 252 255 262 265 270 272 276 280 281 282 283 282 283 283 286